Hatboro, PA

3:00 AM EDT on March 28, 2017 (GMT -0400)
north hatboro | | Change Station

Elev 246 ft 40.17 °N, 75.12 °W | Updated 35 seconds ago

Overcast
Overcast
50.1 °F
Feels Like 50.1 °F
N
1.0
Wind Variable Wind from East

Today
High -- | Low -- °F
--% Chance of Precip.
Yesterday
High -- | Low -- °F
Precip. -- in
Pressure 29.93 in
Visibility 2.5 miles
Clouds Overcast 300 ft
Dew Point 49 °F
Humidity 98%
Rainfall 0.27 in
Snow Depth Not available.
6:50 AM 7:21 PM
New Moon, 0% visible
METAR KPNE 280654Z AUTO 07007KT 2 1/2SM BR OVC003 11/10 A2993 RMK AO2 LTG DSNT N-E RAB0558E13 SLP134 P0000 T01060100
Pressure 29.93 in
Visibility 2.5 miles
Clouds Overcast 300 ft
Dew Point 49 °F
Humidity 98%
Rainfall 0.27 in
Snow Depth Not available.
6:50 AM 7:21 PM
New Moon, 0% visible
METAR KPNE 280654Z AUTO 07007KT 2 1/2SM BR OVC003 11/10 A2993 RMK AO2 LTG DSNT N-E RAB0558E13 SLP134 P0000 T01060100

Get Severe Weather Alerts

Thanks for signing up!

Be on the lookout for a verification email in your inbox.

You'll start receiving the daily forecast at 8 AM.

×

10-Day Weather Forecast

Almanac

Astronomy

Mar. 28, 2017 Rise Set
Actual Time
Civil Twilight
Nautical Twilight
Astronomical Twilight
Moon
Length of Visible Light
Length of Day
Tomorrow will be .
, % of the Moon is Illuminated

Today's Extremes

State Highs State Lows

Community

WunderPhotos

Upload Photos

1,962,540 photos uploaded!

WunderBlog® & News

Nearby

Air Quality

  Air Quality AQ Index Pollutant
Not available.

Snow Depth

Station Depth Elevation

Earthquake Activity

City Distance Mag. Time & Date
Minimum magnitude displayed is 2.5.

Earthquake Activity

City Distance Mag. Time & Date
Minimum magnitude displayed is 2.5.

Coastal Water Temperatures

Place Temperature

Stations

Nearby Weather Stations

Station Location Temp. Windchill Dew Point Humidity Wind Precip. Elev Updated Type
                   

Watches & Warnings

There are currently no watches in effect.